GFSFLT2_850_temp_216.txt.gz
Temp
22 22 20 20 19 19 19 18 18 18 18 18 18 18 17 18 18 17 17 17 17 17 17 17 17 17 17 17 17 17 17 17
22 22 21 19 19 18 18 18 18 18 17 17 17 17 17 17 17 17 17 17 17 17 17 17 17 17 17 17 17 17 17 17
21 22 21 20 19 18 18 17 17 17 17 17 17 17 17 17 16 17 16 17 17 17 17 17 17 17 17 17 17 17 17 17
19 20 21 20 19 18 17 17 17 17 17 17 16 16 17 16 16 16 17 16 16 16 16 17 16 16 16 16 16 16 16 15
19 19 19 19 17 17 17 17 17 17 17 16 16 16 15 15 15 15 16 16 16 16 16 16 16 16 14 15 15 15 15 15
20 20 19 18 17 17 17 17 16 16 16 16 16 16 15 15 15 15 15 16 16 16 15 15 15 14 14 15 15 14 15 15
20 20 19 19 17 17 16 16 16 15 16 15 15 15 15 15 15 15 15 14 14 14 14 14 14 14 13 13 13 14 14 15
21 21 20 18 17 18 18 18 17 16 16 16 15 16 15 15 15 15 15 15 14 14 14 14 14 14 14 14 14 14 13 13
22 21 21 18 16 18 18 19 18 17 16 15 16 16 15 15 15 15 15 15 14 14 14 14 13 13 14 13 13 13 14 14
23 21 21 19 17 16 18 18 18 18 16 15 15 15 15 15 15 14 14 14 14 14 14 14 14 14 14 14 14 13 13 13
23 21 21 19 16 16 16 17 18 17 15 15 15 15 14 15 15 14 14 14 14 14 14 14 15 15 14 14 14 14 15 15
23 21 21 18 16 16 15 15 17 15 16 15 14 14 15 14 14 14 14 14 13 14 13 14 14 14 13 14 14 14 14 15
22 21 20 18 16 15 15 15 15 15 16 14 14 14 14 14 14 14 14 13 12 12 12 12 12 12 11 12 11 12 12 12
22 21 20 18 15 16 15 15 15 14 14 14 14 13 14 14 13 12 12 13 13 13 13 13 12 12 11 10 11 11 12 12
21 20 20 18 16 15 15 14 14 14 14 13 14 13 13 13 13 13 13 14 14 14 13 12 11 11 10 9 10 11 11 11
20 20 19 18 15 15 14 14 14 14 14 13 13 13 13 13 14 14 14 14 14 13 12 11 11 10 11 11 9 9 8 8
19 18 17 17 14 14 14 14 14 14 13 12 12 12 13 13 14 14 14 13 13 12 12 12 11 10 9 8 7 7 7 7
18 16 15 14 14 13 14 14 14 13 12 12 12 12 12 13 13 14 13 12 12 12 11 10 9 8 8 7 5 5 5 5
17 15 14 13 13 13 14 14 13 14 12 11 12 12 11 11 11 12 12 12 11 10 10 9 9 7 5 5 4 4 4 4
16 14 13 13 13 13 13 13 12 12 12 11 11 11 11 12 12 11 11 10 9 9 9 8 7 6 5 4 3 3 3 3

GFSFLT2_850_temp_222.txt.gz
Temp
22 22 21 21 21 21 20 20 19 19 19 19 19 19 18 19 19 19 18 18 18 18 18 18 18 18 18 18 18 17 16 16
23 22 21 21 21 20 20 20 19 19 19 19 18 18 18 18 18 18 18 18 18 18 17 17 17 17 18 18 18 18 17 16
22 22 22 21 21 20 20 19 19 19 19 18 18 18 18 18 18 18 18 18 18 17 17 17 17 17 17 17 17 17 17 17
22 22 22 21 21 20 20 19 19 19 18 18 18 18 18 18 17 17 17 17 17 17 17 17 17 16 16 16 16 17 17 17
23 22 22 21 21 20 20 19 19 18 18 18 17 17 17 17 17 17 17 16 16 17 16 16 16 16 16 16 16 16 16 16
23 23 22 21 21 21 20 19 19 18 18 18 17 17 17 17 17 17 16 16 16 16 16 15 15 15 15 15 15 15 15 15
23 23 23 22 22 21 20 20 19 18 18 18 17 17 17 17 16 16 16 16 15 15 15 15 15 14 14 14 14 14 14 14
23 22 22 22 22 21 21 20 19 18 18 17 17 17 16 16 16 16 15 15 15 15 14 14 14 14 14 13 14 14 14 14
24 22 22 22 22 21 21 20 19 19 18 17 17 17 16 16 16 15 15 15 15 14 14 14 14 14 14 14 14 14 14 14
25 23 22 22 22 22 21 20 19 19 18 17 17 16 16 16 15 15 15 14 14 14 14 14 14 13 14 14 14 14 14 14
26 24 22 21 21 21 21 20 19 19 18 17 17 16 16 16 15 15 15 14 14 14 14 14 14 13 13 13 14 14 14 15
26 24 23 21 21 20 19 19 18 18 19 17 16 15 15 15 15 14 14 14 14 14 14 14 14 13 14 14 14 14 15 16
25 24 23 20 20 19 17 18 17 17 18 16 15 15 14 15 14 14 14 14 13 13 13 13 13 13 13 13 15 15 15 15
24 24 24 22 20 20 18 18 17 17 16 16 15 14 15 14 14 14 14 13 13 13 13 13 12 12 12 13 13 15 15 15
25 25 25 23 21 20 18 17 16 15 14 14 14 14 14 14 14 14 13 13 13 13 13 13 13 12 13 12 11 10 12 13
25 25 25 23 21 20 20 19 18 17 15 14 14 14 14 14 14 14 13 13 13 13 13 13 13 13 12 11 10 9 8 8
26 25 24 23 22 20 19 18 18 18 15 14 14 14 13 13 13 13 13 13 12 12 12 13 13 13 12 11 10 10 8 6
24 23 23 22 21 19 18 18 18 17 15 14 14 13 13 13 13 13 13 13 12 12 13 12 12 12 11 11 10 8 7 5
23 23 21 21 21 19 18 18 18 17 15 14 14 13 13 13 13 12 11 12 13 13 13 11 11 11 10 10 9 7 6 5
23 22 20 20 19 17 17 16 15 15 15 14 14 14 14 13 12 12 12 12 12 11 12 11 10 10 9 8 7 6 5 4

GFSFLT2_850_temp_225.txt.gz
Temp
23 22 21 21 21 20 20 20 20 19 19 19 19 19 19 19 19 19 19 19 19 18 18 18 17 17 17 17 17 16 15 15
22 22 21 21 21 20 20 19 19 19 19 19 19 19 18 18 18 19 18 18 18 18 18 18 17 17 17 17 17 17 16 15
22 22 22 21 21 20 20 19 19 19 19 19 19 18 18 18 18 18 18 18 18 18 18 18 17 17 17 17 17 17 17 17
22 22 22 21 21 20 20 19 19 19 19 19 18 18 18 18 17 17 17 17 17 17 17 17 17 17 17 17 17 17 17 17
23 22 22 22 21 20 20 20 19 19 19 19 18 18 18 18 17 17 17 17 17 17 17 17 17 17 17 17 16 16 16 16
24 23 22 22 21 21 20 20 20 19 19 18 18 18 17 17 17 17 16 16 16 16 16 16 16 16 16 16 16 15 15 15
24 24 23 22 22 21 21 20 20 19 19 18 18 18 18 17 17 16 16 16 16 15 15 15 15 15 15 15 15 14 14 15
25 24 23 23 22 22 21 20 20 19 19 18 18 18 17 17 17 16 16 16 15 15 15 15 15 14 14 14 14 14 14 14
25 24 23 22 23 22 21 21 20 19 19 18 18 17 17 16 16 16 16 16 15 15 15 14 15 14 14 13 14 14 14 14
25 24 24 22 22 22 22 21 20 19 19 18 18 17 17 16 16 16 16 15 14 14 14 14 14 14 14 13 14 14 14 14
25 24 24 24 22 22 22 21 20 19 19 18 18 17 17 16 16 16 15 14 14 14 14 14 14 14 14 13 14 14 14 14
25 25 25 24 22 21 21 20 20 19 18 18 18 18 17 16 16 15 14 14 14 14 14 13 13 14 14 14 14 14 14 14
25 25 25 24 23 21 21 21 20 19 18 18 17 17 16 16 15 15 14 14 14 14 13 13 13 13 13 13 13 13 14 15
26 26 26 25 24 23 21 21 20 20 18 17 17 17 16 15 15 15 14 14 13 13 13 13 12 12 12 12 13 15 15 15
26 27 26 25 25 21 20 19 18 18 17 17 17 14 15 14 14 14 14 14 13 13 13 13 13 12 12 12 12 13 14 14
26 25 25 25 24 22 21 21 20 20 19 17 16 15 15 14 14 14 14 14 13 13 13 13 12 12 12 12 12 11 11 11
25 24 24 24 24 23 21 20 20 20 19 17 16 15 14 14 14 14 14 14 14 13 13 12 12 12 12 12 12 11 10 8
24 24 24 23 23 22 21 21 20 19 17 16 15 14 14 14 14 14 13 14 13 13 12 12 12 12 13 12 12 10 9 8
23 23 22 22 23 21 20 19 20 19 19 18 15 14 14 14 14 13 13 13 13 12 12 11 12 12 12 12 11 10 9 8
22 23 22 21 21 20 20 19 18 19 18 17 16 15 14 14 13 13 13 12 12 11 12 12 13 12 12 11 10 9 8 7

GFSFLT2_850_temp_231.txt.gz
Temp
22 21 20 20 20 20 19 19 19 19 19 19 19 19 19 19 18 18 18 18 18 18 17 17 17 17 18 17 17 16 16 16
22 21 20 20 20 20 19 19 19 19 19 19 19 19 19 18 18 18 18 18 18 18 17 17 17 17 17 17 17 17 16 16
22 21 20 20 20 20 19 19 19 19 18 19 18 18 18 18 18 18 18 18 18 18 18 17 17 17 17 17 17 17 16 16
22 21 21 20 20 20 19 19 19 18 18 18 18 18 18 18 18 18 18 18 18 17 17 17 17 17 17 17 17 17 17 16
23 22 22 21 21 20 20 19 19 19 18 18 18 18 18 18 18 17 17 17 17 17 17 17 17 17 17 16 16 16 16 15
23 23 22 22 21 21 21 20 20 19 19 18 18 18 18 18 18 17 17 17 17 17 17 17 17 16 16 16 16 16 16 15
23 23 22 22 22 21 21 21 20 20 19 19 18 18 18 18 18 17 17 17 17 16 16 16 16 16 16 16 15 15 15 15
24 23 22 22 22 22 22 21 21 20 20 19 19 18 18 18 18 17 17 17 17 16 16 15 15 16 16 15 15 15 14 14
24 23 23 22 22 22 22 21 21 20 20 19 19 19 18 17 17 17 17 17 16 16 15 15 15 15 15 15 14 14 14 14
24 23 23 22 22 22 22 22 21 20 20 20 19 19 18 18 17 17 16 16 16 16 15 15 15 15 15 14 14 14 14 14
23 23 23 23 22 22 21 21 21 21 20 20 19 19 18 18 17 17 16 16 15 15 15 15 14 14 14 14 14 13 13 13
23 23 23 23 22 22 21 21 21 20 20 20 19 19 18 18 17 17 16 16 15 15 15 14 14 14 14 14 14 13 13 13
23 23 23 22 22 22 21 22 21 21 20 20 19 19 18 18 17 17 16 16 15 15 14 13 13 13 13 14 13 13 13 13
24 24 24 23 22 22 22 22 21 21 21 20 20 19 19 18 17 17 16 15 15 14 14 13 13 14 13 13 13 13 14 14
24 25 25 24 24 22 21 20 20 20 21 21 21 19 19 18 17 17 16 16 15 14 14 14 14 13 13 13 13 13 13 14
23 24 24 25 24 24 23 22 22 23 22 21 21 20 19 19 17 17 17 16 15 14 14 14 13 13 13 13 12 12 12 12
23 23 23 23 24 23 23 21 21 20 21 21 21 21 19 18 17 16 16 15 15 14 14 14 13 14 13 13 12 12 11 11
23 23 23 23 23 22 22 22 20 19 21 21 20 20 20 19 18 17 16 15 14 14 14 14 14 14 13 12 12 12 12 12
22 23 23 23 22 21 21 20 19 20 20 20 19 20 20 19 18 17 16 15 14 14 14 13 14 14 12 12 12 12 12 12
22 22 22 22 22 22 21 20 20 18 18 19 20 20 20 19 18 17 16 14 14 13 14 13 13 13 12 12 11 11 12 11

GFSFLT2_850_temp_237.txt.gz
Temp
22 21 21 20 20 20 20 20 20 20 20 20 20 19 19 19 19 19 18 18 18 18 18 18 17 17 17 17 17 17 17 18
22 21 20 20 20 20 20 20 20 20 20 19 19 19 19 19 19 18 18 18 18 18 18 18 17 17 17 17 17 17 17 18
21 21 20 19 19 19 19 19 19 19 19 19 19 19 19 18 18 18 18 18 18 18 18 18 17 17 17 17 17 17 17 17
20 20 20 19 17 19 18 18 18 18 18 18 18 18 18 18 18 18 18 18 18 18 18 17 17 17 17 17 17 16 16 17
18 19 19 18 18 17 18 18 18 18 18 18 18 16 16 16 16 17 17 17 18 17 17 17 17 16 16 16 16 16 17 17
18 17 18 19 18 17 17 17 16 16 16 17 16 16 16 15 16 17 17 17 17 17 17 17 15 15 16 16 15 16 17 17
19 18 17 18 18 18 17 18 17 17 16 15 16 16 16 16 16 16 15 15 15 15 15 15 15 15 15 15 15 15 16 16
20 19 17 17 18 18 18 18 18 17 17 16 16 16 16 16 16 16 16 16 16 16 16 15 15 15 15 15 15 15 15 15
20 19 18 17 18 18 17 18 18 17 17 16 16 15 16 16 16 16 17 16 16 16 15 15 15 15 15 15 15 15 15 15
21 19 18 18 18 18 17 18 17 18 17 17 16 15 16 15 16 16 16 16 16 16 15 15 16 16 16 16 15 15 14 14
22 20 19 18 18 18 17 17 17 18 18 17 16 15 15 16 16 16 16 16 16 16 15 16 16 16 16 15 15 15 14 14
23 20 19 18 18 17 18 18 17 18 18 17 17 16 16 15 16 16 16 15 16 15 16 16 16 15 15 15 15 14 14 14
23 21 19 18 18 18 18 18 18 17 18 18 17 16 17 16 16 16 15 15 15 15 15 15 15 15 14 14 14 14 14 14
24 22 20 19 19 19 19 19 19 18 17 17 17 17 18 18 18 16 15 15 15 15 15 15 15 14 15 15 15 15 15 14
23 23 21 20 19 19 19 19 19 19 18 17 17 18 18 18 17 17 16 15 15 15 15 15 14 14 14 15 16 16 16 14
22 22 22 21 19 20 20 20 20 20 19 18 18 18 18 18 17 17 17 16 16 15 15 15 14 14 14 14 15 16 16 14
22 21 21 22 21 20 19 20 20 20 20 19 18 17 18 18 17 16 16 16 16 15 15 15 15 15 14 14 14 15 15 14
24 22 22 21 21 21 20 20 20 19 20 19 18 17 17 17 17 16 16 16 16 16 15 15 15 15 14 13 14 15 14 14
23 22 22 21 21 21 20 21 19 18 19 19 18 17 17 18 17 16 16 16 16 17 16 15 16 15 15 14 13 14 14 14
22 21 21 21 21 20 20 19 18 18 18 18 18 17 17 17 17 15 15 15 15 17 15 15 15 15 14 13 13 14 14 13

GFSFLT2_850_temp_240.txt.gz
Temp
23 23 22 22 21 21 21 20 20 20 20 20 19 19 19 19 19 19 19 18 18 18 18 18 17 17 17 17 18 17 18 18
23 22 21 21 21 21 20 20 20 20 20 19 19 19 19 19 19 19 19 18 18 18 18 18 18 18 17 17 17 18 18 18
22 22 21 21 20 20 20 20 19 19 19 19 19 19 19 19 19 18 18 18 18 18 18 18 18 18 18 18 18 18 18 17
21 21 21 20 20 20 19 19 19 19 19 19 19 18 19 19 19 18 18 18 18 18 18 18 18 18 18 18 18 17 17 17
21 21 21 20 20 20 19 19 19 19 19 19 19 18 18 18 19 18 18 18 18 18 18 18 18 18 17 17 17 17 17 17
20 20 20 20 18 20 19 19 19 19 19 19 18 17 17 17 18 18 18 19 18 18 18 18 17 17 16 16 16 16 17 17
19 20 20 20 18 19 19 19 19 19 18 18 18 18 16 16 16 17 18 18 18 18 18 18 17 16 16 16 16 16 16 16
19 19 20 20 18 18 19 18 18 18 18 18 18 18 16 16 16 16 17 17 17 17 17 16 16 15 16 16 16 15 15 16
20 19 19 20 20 18 18 18 17 18 17 17 18 17 16 16 17 16 16 16 16 16 16 16 15 15 15 15 15 15 15 15
22 20 19 20 19 18 18 18 18 18 18 17 17 17 16 16 16 16 16 16 16 16 16 16 15 15 16 16 16 16 15 15
23 21 20 20 20 19 18 18 18 18 18 17 17 17 17 16 16 16 16 16 16 16 16 16 15 16 16 16 16 16 15 15
24 23 20 19 19 19 18 17 18 18 18 18 17 17 17 17 16 16 16 16 16 16 16 16 16 16 16 16 16 16 15 15
23 23 22 19 18 18 17 17 17 18 18 18 18 17 17 18 17 16 16 16 16 16 16 15 16 16 16 15 15 15 15 15
23 23 23 21 18 18 18 17 18 18 18 19 18 18 17 18 18 17 17 16 16 16 16 15 16 16 15 15 15 15 15 15
23 23 24 22 20 18 17 18 18 18 18 19 18 18 18 18 19 18 17 17 17 17 16 16 16 15 15 15 15 15 16 15
23 23 23 23 22 20 18 18 18 19 19 19 19 19 19 19 18 18 17 17 17 17 17 16 16 15 15 15 16 15 16 14
24 22 21 21 22 20 19 19 19 19 19 19 18 19 19 19 19 18 17 16 17 16 17 16 17 16 16 15 15 15 16 15
25 24 22 22 20 20 20 20 19 20 20 19 19 18 19 18 19 18 18 16 17 17 16 17 17 16 16 15 16 15 15 16
23 23 23 23 22 21 20 20 20 20 20 20 20 19 18 19 19 18 17 17 16 16 15 16 17 16 16 16 15 15 15 15
21 22 22 22 21 21 22 21 19 19 20 20 20 20 19 18 18 18 17 17 16 16 15 15 16 15 16 15 14 14 14 15

GFSFLT2_850_temp_246.txt.gz
Temp
22 22 22 22 22 21 21 21 21 20 20 20 20 20 19 19 19 19 19 19 19 18 18 18 17 17 17 16 16 16 17 17
22 22 22 22 21 21 21 21 21 20 20 20 20 20 20 19 19 19 19 19 19 19 18 18 18 17 17 17 16 16 17 17
23 22 22 21 21 21 21 21 20 20 20 20 20 20 20 20 19 19 19 19 19 19 19 19 18 18 18 17 17 16 17 16
23 23 22 22 21 21 21 20 20 20 20 20 20 20 19 19 19 19 19 19 19 19 19 19 19 18 18 18 17 17 17 17
22 23 23 22 22 21 21 21 20 20 20 20 20 19 19 19 19 19 19 19 19 19 19 19 19 18 18 18 18 17 17 17
22 22 22 22 22 22 21 21 21 20 20 20 20 19 19 19 19 19 19 19 19 19 19 18 18 18 18 18 18 18 17 17
22 22 22 22 22 21 21 21 21 21 20 20 20 20 20 19 19 19 19 19 19 19 19 18 18 18 18 17 17 17 17 16
21 21 21 21 21 21 21 21 21 21 20 20 20 20 20 20 19 19 19 19 19 19 18 18 18 18 18 17 17 17 16 16
22 21 21 21 21 21 21 21 21 20 20 20 20 20 20 19 19 19 19 19 18 18 18 18 17 17 17 17 16 16 16 16
22 22 22 21 21 21 20 20 20 20 20 20 20 19 19 19 19 19 19 18 18 18 18 18 17 17 17 16 16 16 16 15
22 22 22 22 21 21 20 20 20 20 20 20 19 19 19 19 19 19 18 18 18 17 17 17 17 17 17 16 16 16 16 16
23 23 23 22 22 21 20 20 19 19 19 19 19 19 19 19 18 18 18 18 18 17 17 17 17 17 16 16 16 16 16 16
23 22 23 21 21 21 20 20 19 19 19 19 19 18 18 18 19 18 18 18 18 18 17 16 16 16 15 15 16 16 16 15
24 24 22 22 21 22 21 22 21 19 19 19 19 19 18 18 18 19 18 18 17 17 16 16 16 16 15 15 15 15 15 15
24 25 24 22 22 21 19 17 18 18 18 18 18 18 18 18 18 19 18 18 18 17 17 16 16 16 16 15 14 15 16 16
24 24 25 24 22 21 20 21 20 21 21 19 18 18 17 18 18 18 18 18 18 18 17 17 16 16 16 15 15 16 16 16
24 23 24 25 24 22 21 21 21 22 21 21 20 19 18 18 17 18 18 17 18 18 17 17 16 16 16 16 15 15 15 15
23 23 22 24 24 21 21 20 21 20 19 19 20 20 19 18 18 18 18 18 18 18 18 17 17 16 16 16 16 15 14 15
21 18 17 17 18 18 21 20 20 20 21 20 20 20 20 21 20 19 18 18 18 17 17 17 17 16 16 16 16 16 15 15
19 18 17 17 18 18 19 17 19 20 21 20 20 20 20 20 20 19 19 19 18 17 17 17 17 16 16 16 15 16 15 15